Weather Roundup
Issued by NWS

Home | Current Version | Previous Version | Graphics & Text | Print | Product List | Glossary Off
Versions: 1 2 3 4 5 6 7 8 9 10 11 12 13 14 15 16 17 18 19 20 21 22 23 24 25 26 27 28 29 30 31 32 33 34 35 36 37 38 39 40 41 42 43 44 45 46 47 48 49 50

473
NZUS93 KARX 261110
HRRWXR

CURRENT HOURLY OBSERVATIONS ACROSS
MUCH OF THE UPPER MISSISSIPPI VALLEY
NATIONAL WEATHER SERVICE LA CROSSE WI
600 AM CDT WED JUL 26 2017


...SOUTHEAST MINNESOTA...


CITY           SKY/WX    TMP DP  RH WIND       PRES   REMARKS
ROCHESTER      CLOUDY    72  70  93 N8        30.03R
ROCHESTER/MAYO CLOUDY    72  68  88 N14G24    30.03R
WINONA         CLOUDY    73  68  83 CALM      29.97S
AUSTIN         CLOUDY    70  66  88 CALM      30.01R
ALBERT LEA     CLOUDY    75  72  88 S6        29.99S
DODGE CENTER   TSTM      70  66  88 N8        30.03R
PRESTON        CLOUDY    70  66  88 S9        30.01S
OWATONNA       RAIN      72  70  94 S5        30.02R
FARIBAULT      LGT RAIN  70  68  94 N5        29.98F
$$

...ELSEWHERE IN MINNESOTA...


CITY           SKY/WX    TMP DP  RH WIND       PRES   REMARKS
MINNEAPOLIS    CLOUDY    73  70  90 E7        29.96F
INTNL FALLS    CLEAR     55  53  93 CALM      29.94S
DULUTH         PTCLDY    65  64  97 NW7       29.95R
RED WING       RAIN      70  66  88 CALM      29.99S
REDWOOD FALLS  CLOUDY    71  68  90 S6        29.97R
MANKATO        CLOUDY    71  69  93 NE8       29.98R
WORTHINGTON    LGT RAIN  69  68  96 CALM      30.02R
FAIRMONT       CLOUDY    74  70  87 N6        30.00R
$$

...SOUTHWEST WISCONSIN...


CITY           SKY/WX    TMP DP  RH WIND       PRES   REMARKS
LA CROSSE      CLOUDY    75  69  81 S10       29.98F
PRAIRIE DU CHI MOCLDY    72  66  82 CALM      30.02R
BOSCOBEL       CLOUDY    71  67  87 CALM      30.03S
LONE ROCK      CLOUDY    68  67  96 CALM      30.05R
PLATTEVILLE    CLOUDY    68  68 100 CALM      30.07R
FORT MC COY    CLOUDY    69  66  92 S5        30.01F
CAMP DOUGLAS   CLOUDY    69  67  94 S3        30.01S
MAUSTON-NEW LI CLOUDY    71  67  87 S6        30.01S
VIROQUA        FAIR      69  69 100 S5        30.03F
WIS DELLS      CLOUDY    69  63  79 SW9       30.04R
$$

...ELSEWHERE IN WISCONSIN...


CITY           SKY/WX    TMP DP  RH WIND       PRES   REMARKS
MILWAUKEE      CLOUDY    69  60  73 S10       30.06F
MADISON        CLOUDY    68  62  81 S7        30.06R
GREEN BAY      CLOUDY    68  64  87 SW12      30.01S
EAU CLAIRE     TSTM      70  69  97 SW10      30.02R VSB 1
BLACK RVR FLS  FAIR      67  67 100 CALM      29.99F FOG
MEDFORD        CLOUDY    67  66  96 S3        29.99F
WAUSAU         CLOUDY    67  66  97 S5        30.00R
WIS RAPIDS     CLOUDY    69  66  90 S6        30.02S
MARSHFIELD     CLOUDY    67  65  93 S7        29.99F
RICE LAKE      LGT RAIN  71  69  95 SW6       30.02R
$$

...NORTHEAST IOWA...


CITY           SKY/WX    TMP DP  RH WIND       PRES   REMARKS
WATERLOO       CLOUDY    71  68  90 SE7       29.99R
DUBUQUE        PTCLDY    68  66  93 S12       30.05R
DECORAH        PTCLDY    72  68  88 S3        30.01R
MASON CITY     CLOUDY    72  70  93 S5        30.01R
CHARLES CITY   MOCLDY    70  70 100 S7        30.01R
OELWEIN        CLOUDY    70  70 100 S8        30.03R
$$

...ELSEWHERE IN IOWA...


CITY           SKY/WX    TMP DP  RH WIND       PRES   REMARKS
DES MOINES     CLOUDY    75  69  81 S8        29.98R
IOWA CITY      CLOUDY    71  68  90 SE6       30.04R
FORT DODGE     CLOUDY    73  70  88 SW3       30.00R
MARSHALLTOWN   CLOUDY    72  69  90 SE9       29.98F
CEDAR RAPIDS   NOT AVBL
$$

...NORTHERN ILLINOIS...


CITY           SKY/WX    TMP DP  RH WIND       PRES   REMARKS
CHICAGO-OHARE  MOCLDY    66  59  78 S3        30.09F
CHICAGO-MIDWAY MOCLDY    69  60  73 S7        30.09F
MOLINE         CLOUDY    70  66  87 CALM      30.04S
ROCKFORD       CLOUDY    66  61  84 S7        30.08S
PEORIA         CLEAR     69  66  90 SE5       30.06F
$$

NOTE: "FAIR" INDICATES FEW OR NO CLOUDS BELOW 12,000 FEET WITH NO
SIGNIFICANT WEATHER AND/OR OBSTRUCTIONS TO VISIBILITY. WIND
SPEEDS ARE IN MILES-PER-HOUR.




USA.gov is the U.S. government's official web portal to all federal, state and local government web resources and services.